DW2819 Weather Reports


Display with metric or nautical units.
time (UTC)temp
F
wind
direction
speed
MPH
gust
MPH
rain 1hr
in
rain 24hr
in
rain mn
in
humidity
%
barometer
mb
20260904075402 61 58 0.0 3.0 0.00 0.00 0.00 79 998.8
20260904074901 62 118 1.0 3.0 0.00 0.00 0.00 77 998.8
20260904074407 61 51 2.0 3.0 0.00 0.00 0.00 80 998.8
20260904073910 61 117 1.0 3.0 0.00 0.00 0.00 80 998.8
20260904073402 60 56 1.0 3.0 0.00 0.00 0.00 80 998.9
20260904072901 60 137 0.0 3.0 0.00 0.00 0.00 85 998.9
20260904072404 58 116 1.0 3.0 0.00 0.00 0.00 86 999.0
20260904071904 59 173 0.0 1.0 0.00 0.00 0.00 84 999.1
20260904071401 59 173 0.0 2.0 0.00 0.00 0.00 83 999.0
20260904070901 59 175 1.0 2.0 0.00 0.00 0.00 84 999.1
20260904070403 58 175 0.0 2.0 0.00 0.00 0.00 87 999.1
20260904065906 56 45 0.0 1.0 0.00 0.00 0.00 88 999.1
20260904065403 55 45 0.0 0.0 0.00 0.00 0.00 88 999.2
20260904064903 54 45 0.0 0.0 0.00 0.00 0.00 89 999.3
20260904064404 54 45 0.0 0.0 0.00 0.00 0.00 91 999.4
20260904063857 53 45 0.0 0.0 0.00 0.00 0.00 90 999.5
20260904063419 51 45 0.0 0.0 0.00 0.00 0.00 89 999.6
20260904062355 51 45 0.0 0.0 0.00 0.00 0.00 92 999.6
20260904061854 50 45 0.0 0.0 0.00 0.00 0.00 91 999.5
20260904061354 50 45 0.0 0.0 0.00 0.00 0.00 91 999.6
20260904060853 49 45 0.0 0.0 0.00 0.00 0.00 92 999.6
20260904060355 49 45 0.0 0.0 0.00 0.00 0.00 92 999.6
20260904055357 48 45 0.0 0.0 0.00 0.00 0.00 92 999.6
20260904054857 48 45 0.0 0.0 0.00 0.00 0.00 93 999.6
20260904054355 47 45 0.0 0.0 0.00 0.00 0.00 93 999.7
20260904053855 47 45 0.0 0.0 0.00 0.00 0.00 92 999.6
20260904053357 47 45 0.0 0.0 0.00 0.00 0.00 92 999.6
20260904052856 46 45 0.0 0.0 0.00 0.00 0.00 92 999.7
20260904052356 46 45 0.0 0.0 0.00 0.00 0.00 92 999.7
20260904051855 46 45 0.0 0.0 0.00 0.00 0.00 92 999.8
20260904051355 46 45 0.0 0.0 0.00 0.00 0.00 92 999.8
20260904050856 46 45 0.0 0.0 0.00 0.00 0.00 92 999.9
20260904050356 46 45 0.0 0.0 0.00 0.00 0.00 92 999.9
20260904045855 46 45 0.0 0.0 0.00 0.00 0.00 93 999.8
20260904044856 45 45 0.0 0.0 0.00 0.00 0.00 93 999.9
20260904043857 45 45 0.0 0.0 0.00 0.00 0.00 92 1000.0
20260904043406 45 45 0.0 0.0 0.00 0.00 0.00 92 1000.2
20260904042357 45 45 0.0 0.0 0.00 0.00 0.00 92 1000.3
20260904041856 44 45 0.0 0.0 0.00 0.00 0.00 91 1000.4
20260904041355 44 45 0.0 0.0 0.00 0.00 0.00 91 1000.4
20260904040855 44 45 0.0 0.0 0.00 0.00 0.00 91 1000.4
20260904040354 44 45 0.0 0.0 0.00 0.00 0.00 91 1000.4
20260904035902 44 45 0.0 0.0 0.00 0.00 0.00 91 1000.5
20260904035403 44 45 0.0 0.0 0.00 0.00 0.00 91 1000.6
20260904034857 44 45 0.0 0.0 0.00 0.00 0.00 91 1000.6
20260904034359 44 45 0.0 0.0 0.00 0.00 0.00 91 1000.8
20260904033416 44 45 0.0 0.0 0.00 0.00 0.00 90 1001.0
20260904031849 44 45 0.0 0.0 0.00 0.00 0.00 90 1001.0
20260904031349 44 45 0.0 0.0 0.00 0.00 0.00 90 1001.1
20260904030848 44 45 0.0 0.0 0.00 0.00 0.00 90 1001.2
20260904030336 44 45 0.0 0.0 0.00 0.00 0.00 90 1001.3
20260904025835 44 45 0.0 0.0 0.00 0.00 0.00 90 1001.3
20260904025333 44 45 0.0 0.0 0.00 0.00 0.00 90 1001.4
20260904024830 44 45 0.0 0.0 0.00 0.00 0.00 90 1001.4
20260904024331 44 45 0.0 0.0 0.00 0.00 0.00 90 1001.5
20260904023812 44 45 0.0 0.0 0.00 0.00 0.00 90 1001.6
20260904023309 44 45 0.0 0.0 0.00 0.00 0.00 90 1001.7
20260904022305 44 45 0.0 0.0 0.00 0.00 0.00 90 1001.7
20260904021801 44 45 0.0 0.0 0.00 0.00 0.00 90 1001.8
20260904021301 44 45 0.0 0.0 0.00 0.00 0.00 90 1001.8
20260904020800 44 45 0.0 0.0 0.00 0.00 0.00 90 1001.8
20260904020303 44 45 0.0 0.0 0.00 0.00 0.00 89 1001.8
20260904015758 44 45 0.0 0.0 0.00 0.00 0.00 90 1001.9
20260904015255 44 45 0.0 0.0 0.00 0.00 0.00 90 1001.9
20260904014807 44 45 0.0 0.0 0.00 0.00 0.00 90 1001.9
20260904013800 45 45 0.0 0.0 0.00 0.00 0.00 90 1002.0
20260904013309 45 45 0.0 0.0 0.00 0.00 0.00 90 1002.1
20260904012302 44 45 0.0 0.0 0.00 0.00 0.00 90 1002.1
20260904011803 45 45 0.0 0.0 0.00 0.00 0.00 89 1002.2
20260904011316 45 45 0.0 0.0 0.00 0.00 0.00 89 1002.3
20260904010305 45 45 0.0 0.0 0.00 0.00 0.00 90 1002.4
20260904005756 45 45 0.0 0.0 0.00 0.00 0.00 90 1002.4
20260904005258 45 45 0.0 0.0 0.00 0.00 0.00 90 1002.5
20260904004755 45 45 0.0 0.0 0.00 0.00 0.00 90 1002.5
20260904004255 45 45 0.0 0.0 0.00 0.00 0.00 90 1002.8
20260904003803 45 45 0.0 0.0 0.00 0.00 0.00 90 1002.8
20260904003255 45 45 0.0 0.0 0.00 0.00 0.00 89 1002.9
20260904002752 45 45 0.0 0.0 0.00 0.00 0.00 89 1003.0
20260904002252 45 45 0.0 0.0 0.00 0.00 0.00 89 1003.1
20260904001754 45 45 0.0 0.0 0.00 0.00 0.00 89 1003.1
20260904001252 45 45 0.0 0.0 0.00 0.00 0.00 89 1003.1
20260904000809 45 45 0.0 0.0 0.00 0.00 0.00 89 1003.1
20260903235756 45 45 0.0 0.0 0.00 0.00 0.00 89 1003.2
20260903235340 45 45 0.0 0.0 0.00 0.00 0.00 90 1003.2
20260903233754 45 45 0.0 0.0 0.00 0.00 0.00 89 1003.3
20260903233254 45 45 0.0 0.0 0.00 0.00 0.00 89 1003.5
20260903232758 45 45 0.0 0.0 0.00 0.00 0.00 89 1003.4
20260903232255 46 45 0.0 0.0 0.00 0.00 0.00 89 1003.6
20260903231756 46 45 0.0 0.0 0.00 0.00 0.00 89 1003.6
20260903231255 46 45 0.0 0.0 0.00 0.00 0.00 89 1003.6
20260903230754 46 45 0.0 0.0 0.00 0.00 0.00 89 1003.7
20260903230255 46 45 0.0 0.0 0.00 0.00 0.00 89 1003.7
20260903225754 46 45 0.0 0.0 0.00 0.00 0.00 90 1003.7
20260903225256 46 45 0.0 0.0 0.00 0.00 0.00 89 1003.7
20260903224811 46 45 0.0 0.0 0.00 0.00 0.00 89 1003.9
20260903223755 46 45 0.0 0.0 0.00 0.00 0.00 90 1004.0
20260903223256 46 45 0.0 0.0 0.00 0.00 0.00 89 1004.0
20260903222754 46 45 0.0 0.0 0.00 0.00 0.00 89 1004.0
20260903222333 46 45 0.0 0.0 0.00 0.00 0.00 89 1004.0
20260903220828 46 45 0.0 0.0 0.00 0.00 0.00 89 1004.1
20260903215742 47 45 0.0 0.0 0.00 0.00 0.00 89 1004.1
20260903215243 47 45 0.0 0.0 0.00 0.00 0.00 89 1004.2
20260903214732 47 45 0.0 0.0 0.00 0.00 0.00 89 1004.2
20260903214231 47 45 0.0 0.0 0.00 0.00 0.00 89 1004.2
20260903213729 47 45 0.0 0.0 0.00 0.00 0.00 89 1004.3
20260903213229 47 45 0.0 0.0 0.00 0.00 0.00 89 1004.4
20260903212733 47 45 0.0 0.0 0.00 0.00 0.00 88 1004.3
20260903212235 47 45 0.0 0.0 0.00 0.00 0.00 89 1004.4
20260903211729 47 45 0.0 0.0 0.00 0.00 0.00 88 1004.4
20260903211225 48 45 0.0 0.0 0.00 0.00 0.00 88 1004.5
20260903210722 48 45 0.0 0.0 0.00 0.00 0.00 88 1004.4
20260903210215 48 45 0.0 0.0 0.00 0.00 0.00 88 1004.4
20260903205713 48 45 0.0 0.0 0.00 0.00 0.00 88 1004.5
20260903205214 48 45 0.0 0.0 0.00 0.00 0.00 88 1004.6
20260903204709 49 45 0.0 0.0 0.00 0.00 0.00 88 1004.6
20260903204209 49 45 0.0 0.0 0.00 0.00 0.00 88 1004.5
20260903203658 49 45 0.0 0.0 0.00 0.00 0.00 87 1004.6
20260903203158 49 45 0.0 0.0 0.00 0.00 0.00 87 1004.5
20260903202701 49 45 0.0 0.0 0.00 0.00 0.00 87 1004.5
20260903202159 49 45 0.0 0.0 0.00 0.00 0.00 87 1004.6
20260903201704 50 45 0.0 0.0 0.00 0.00 0.00 87 1004.7
20260903201159 50 45 0.0 0.0 0.00 0.00 0.00 87 1004.7
20260903200656 50 45 0.0 0.0 0.00 0.00 0.00 86 1004.8
20260903200200 50 45 0.0 0.0 0.00 0.00 0.00 86 1004.8
20260903195653 51 45 0.0 0.0 0.00 0.00 0.00 86 1004.8
20260903194654 51 45 0.0 0.0 0.00 0.00 0.00 86 1004.9
20260903194154 51 45 0.0 0.0 0.00 0.00 0.00 85 1004.9
20260903193658 51 45 0.0 0.0 0.00 0.00 0.00 85 1005.0
20260903193154 51 45 0.0 0.0 0.00 0.00 0.00 85 1005.0
20260903192655 51 45 0.0 0.0 0.00 0.00 0.00 85 1005.0
20260903191654 51 45 0.0 1.0 0.00 0.00 0.00 84 1004.9
20260903191158 51 45 0.0 0.0 0.00 0.00 0.00 84 1004.9
20260903190654 52 45 0.0 0.0 0.00 0.00 0.00 83 1004.9
20260903190154 52 45 0.0 0.0 0.00 0.00 0.00 83 1004.9
20260903185656 52 45 0.0 2.0 0.00 0.00 0.00 83 1004.9
20260903185157 52 45 0.0 2.0 0.00 0.00 0.00 82 1005.0
20260903184154 53 31 0.0 0.0 0.00 0.00 0.00 82 1005.1
20260903183652 53 31 0.0 1.0 0.00 0.00 0.00 81 1005.1
20260903183153 53 31 0.0 1.0 0.00 0.00 0.00 81 1005.1
20260903182650 53 31 0.0 2.0 0.00 0.00 0.00 81 1005.1
20260903182154 53 31 0.0 2.0 0.00 0.00 0.00 81 1005.1
20260903181650 53 86 0.0 1.0 0.00 0.00 0.00 81 1005.1
20260903181150 54 86 0.0 0.0 0.00 0.00 0.00 80 1005.2
20260903180650 54 92 0.0 1.0 0.00 0.00 0.00 80 1005.2
20260903180155 54 86 0.0 2.0 0.00 0.00 0.00 79 1005.3
20260903175657 55 45 0.0 2.0 0.00 0.00 0.00 79 1005.2
20260903175157 55 109 0.0 2.0 0.00 0.00 0.00 79 1005.2
20260903174657 55 24 0.0 2.0 0.00 0.00 0.00 78 1005.2
20260903174158 56 134 0.0 1.0 0.00 0.00 0.00 77 1005.2
20260903173654 56 172 0.0 2.0 0.00 0.00 0.00 77 1005.2
20260903173155 56 31 0.0 2.0 0.00 0.00 0.00 76 1005.2
20260903172657 57 16 0.0 2.0 0.00 0.00 0.00 75 1005.2
20260903172154 57 13 0.0 2.0 0.00 0.00 0.00 74 1005.2
20260903171655 57 10 1.0 3.0 0.00 0.00 0.00 74 1005.2
20260903171156 58 25 1.0 4.0 0.00 0.00 0.00 73 1005.1
20260903170654 58 78 0.0 5.0 0.00 0.00 0.00 73 1005.1
20260903165656 58 323 2.0 4.0 0.00 0.00 0.00 73 1005.1
20260903165157 58 71 1.0 4.0 0.00 0.00 0.00 72 1005.1
20260903164655 59 0 1.0 4.0 0.00 0.00 0.00 73 1005.1
20260903164153 59 0 2.0 4.0 0.00 0.00 0.00 71 1005.0
20260903163656 59 17 0.0 2.0 0.00 0.00 0.00 71 1005.0
20260903163154 59 355 0.0 2.0 0.00 0.00 0.00 72 1004.9
20260903162652 60 38 1.0 4.0 0.00 0.00 0.00 69 1005.0
20260903162152 60 6 2.0 4.0 0.00 0.00 0.00 68 1005.0
20260903161651 60 25 1.0 4.0 0.00 0.00 0.00 68 1004.9
20260903161151 60 334 1.0 3.0 0.00 0.00 0.00 69 1005.0
20260903160654 60 0 0.0 6.0 0.00 0.00 0.00 69 1005.0
20260903160152 60 247 2.0 6.0 0.00 0.00 0.00 72 1005.0
20260903155649 60 0 1.0 4.0 0.00 0.00 0.00 71 1005.0
20260903155150 60 340 1.0 3.0 0.00 0.00 0.00 70 1005.0
20260903154653 61 3 2.0 4.0 0.00 0.00 0.00 69 1005.0
20260903153654 61 307 1.0 4.0 0.00 0.00 0.00 68 1005.0
20260903153154 61 0 2.0 4.0 0.00 0.00 0.00 67 1005.0
20260903152655 62 303 1.0 4.0 0.00 0.00 0.00 66 1004.9
20260903152156 62 23 2.0 5.0 0.00 0.00 0.00 65 1004.9
20260903151654 62 11 3.0 5.0 0.00 0.00 0.00 64 1004.9
20260903151155 62 59 2.0 6.0 0.00 0.00 0.00 63 1004.8
20260903150653 62 47 2.0 6.0 0.00 0.00 0.00 63 1004.9
20260903150156 62 266 2.0 4.0 0.00 0.00 0.00 64 1004.8
20260903145654 62 0 1.0 4.0 0.00 0.00 0.00 66 1004.9
20260903145153 62 166 1.0 4.0 0.00 0.00 0.00 64 1004.9
20260903144653 62 271 1.0 4.0 0.00 0.00 0.00 62 1004.8
20260903144153 63 0 2.0 5.0 0.00 0.00 0.00 62 1004.9
20260903143653 63 21 2.0 5.0 0.00 0.00 0.00 62 1004.8
20260903143153 63 209 2.0 5.0 0.00 0.00 0.00 61 1004.8
20260903142655 63 193 2.0 4.0 0.00 0.00 0.00 62 1004.8
20260903142154 63 272 1.0 5.0 0.00 0.00 0.00 62 1004.9
20260903140653 64 245 2.0 4.0 0.00 0.00 0.00 62 1004.9
20260903140154 64 338 2.0 5.0 0.00 0.00 0.00 64 1004.9
20260903135653 64 34 3.0 5.0 0.00 0.00 0.00 63 1004.9
20260903135154 64 6 1.0 4.0 0.00 0.00 0.00 62 1004.9
20260903134656 64 0 2.0 5.0 0.00 0.00 0.00 60 1005.0
20260903134151 64 11 2.0 7.0 0.00 0.00 0.00 61 1004.9
20260903133651 63 282 1.0 7.0 0.00 0.00 0.00 62 1004.9
20260903133150 62 172 1.0 3.0 0.00 0.00 0.00 68 1004.9
20260903132153 62 0 1.0 3.0 0.00 0.00 0.00 65 1004.9
20260903131648 63 68 1.0 3.0 0.00 0.00 0.00 65 1004.9
20260903131149 63 17 0.0 3.0 0.00 0.00 0.00 64 1004.9
20260903130645 63 24 1.0 3.0 0.00 0.00 0.00 64 1004.9
20260903130142 63 128 1.0 3.0 0.00 0.00 0.00 64 1004.9
20260903125642 63 58 1.0 3.0 0.00 0.00 0.00 63 1004.9
20260903125142 63 3 1.0 5.0 0.00 0.00 0.00 64 1004.9
20260903124633 63 333 1.0 5.0 0.00 0.00 0.00 64 1004.9
20260903123129 63 31 0.0 4.0 0.00 0.00 0.00 61 1004.9
20260903122630 64 1 1.0 5.0 0.00 0.00 0.00 59 1004.8
20260903122130 64 320 1.0 5.0 0.00 0.00 0.00 60 1004.8
20260903121630 64 1 1.0 3.0 0.00 0.00 0.00 60 1004.9
20260903121129 64 18 0.0 4.0 0.00 0.00 0.00 58 1004.8
20260903120630 65 85 2.0 5.0 0.00 0.00 0.00 55 1004.9
20260903120130 65 347 1.0 5.0 0.00 0.00 0.00 54 1004.9
20260903115631 65 1 2.0 5.0 0.00 0.00 0.00 52 1004.9
20260903115129 65 23 2.0 5.0 0.00 0.00 0.00 52 1005.0
20260903114630 65 78 2.0 5.0 0.00 0.00 0.00 56 1004.9
20260903114130 65 0 2.0 6.0 0.00 0.00 0.00 51 1005.0
20260903113131 66 354 1.0 3.0 0.00 0.00 0.00 54 1004.9
20260903112633 65 0 1.0 5.0 0.00 0.00 0.00 54 1004.9
20260903112123 65 0 2.0 5.0 0.00 0.00 0.00 53 1005.0
20260903111621 65 330 2.0 4.0 0.00 0.00 0.00 52 1004.9
20260903111118 65 327 0.0 4.0 0.00 0.00 0.00 55 1004.9
20260903110607 65 266 1.0 4.0 0.00 0.00 0.00 54 1005.0
20260903110106 65 35 1.0 6.0 0.00 0.00 0.00 55 1005.0
20260903105608 65 309 1.0 6.0 0.00 0.00 0.00 59 1005.1
20260903105107 65 285 1.0 4.0 0.00 0.00 0.00 56 1005.1
20260903104610 66 212 2.0 5.0 0.00 0.00 0.00 55 1005.1
20260903104107 66 227 2.0 5.0 0.00 0.00 0.00 52 1005.2
20260903103601 66 0 1.0 4.0 0.00 0.00 0.00 52 1005.2
20260903102603 66 44 2.0 6.0 0.00 0.00 0.00 51 1005.2
20260903102059 66 289 2.0 6.0 0.00 0.00 0.00 48 1005.1
20260903101556 67 329 2.0 7.0 0.00 0.00 0.00 54 1005.2
20260903095053 68 330 1.0 5.0 0.00 0.00 0.00 54 1005.2
20260903094053 67 142 1.0 5.0 0.00 0.00 0.00 57 1005.2
20260903093554 67 34 2.0 6.0 0.00 0.00 0.00 55 1005.2
20260903093053 67 85 2.0 6.0 0.00 0.00 0.00 56 1005.3
20260903092555 66 102 1.0 4.0 0.00 0.00 0.00 62 1005.2
20260903091555 67 44 1.0 4.0 0.00 0.00 0.00 59 1005.4
20260903091053 65 10 2.0 5.0 0.00 0.00 0.00 62 1005.5
20260903090555 65 23 2.0 5.0 0.00 0.00 0.00 58 1005.4
20260903085555 67 312 1.0 5.0 0.00 0.00 0.00 57 1005.3
20260903085055 67 259 1.0 6.0 0.00 0.00 0.00 60 1005.3
20260903084554 66 345 1.0 6.0 0.00 0.00 0.00 60 1005.4
20260903084053 67 109 2.0 5.0 0.00 0.00 0.00 62 1005.4
20260903083054 65 0 1.0 5.0 0.00 0.00 0.00 64 1005.4
20260903082600 64 7 2.0 5.0 0.00 0.00 0.00 62 1005.4
20260903082057 65 224 2.0 5.0 0.00 0.00 0.00 65 1005.4
20260903081556 66 299 2.0 3.0 0.00 0.00 0.00 59 1005.5
20260903081052 66 38 1.0 5.0 0.00 0.00 0.00 61 1005.5
20260903080547 66 274 1.0 5.0 0.00 0.00 0.00 61 1005.5
20260903080045 65 334 2.0 5.0 0.00 0.00 0.00 61 1005.5